When you browse on this site, cookies collect data to enhance your experience and personalize the content and advertising you see.
Visit our Privacy Policy to learn more. By continuing to use the site, you agree to this use of cookies and data.
  • In Switzerland
  • List of Countries
  • For 7 days
  • Water Temperature
  • Satellite Maps
  • Weather Map
  • Weather Widgets
  • user-avatar
    Login

    Hourly Weather Bern

    Today, 25 June, Tuesday

    Time Temperature Precipitation Wind Pressure Humidity
    00:00 +21°C° 0 mm 1 mps 718 mmHg 87%
    01:00 +21°C° 0 mm 1 mps 718 mmHg 87%
    02:00 +21°C° 0 mm 1 mps 718 mmHg 86%
    03:00 +21°C° 0 mm 1 mps 718 mmHg 86%
    04:00 +20°C° 0 mm 0 mps 718 mmHg 83%
    05:00 +21°C° 0 mm 0 mps 719 mmHg 81%
    06:00 +22°C° 0 mm 0 mps 719 mmHg 78%
    07:00 +25°C° 0 mm 0 mps 719 mmHg 72%
    08:00 +29°C° 0 mm 1 mps 719 mmHg 65%
    09:00 +31°C° 0 mm 1 mps 720 mmHg 59%
    10:00 +32°C° 0 mm 1 mps 720 mmHg 54%
    11:00 +34°C° 0 mm 1 mps 720 mmHg 50%
    12:00 +35°C° 0 mm 1 mps 720 mmHg 46%
    13:00 +35°C° 0 mm 1 mps 720 mmHg 44%
    14:00 +35°C° 0 mm 1 mps 720 mmHg 43%
    15:00 +35°C° 0 mm 1 mps 720 mmHg 42%
    16:00 +34°C° 0 mm 1 mps 720 mmHg 50%
    17:00 +32°C° 0 mm 1 mps 720 mmHg 59%
    18:00 +31°C° 0 mm 1 mps 720 mmHg 68%
    19:00 +29°C° 0 mm 1 mps 720 mmHg 72%
    20:00 +27°C° 0 mm 1 mps 720 mmHg 77%
    21:00 +25°C° 0 mm 1 mps 721 mmHg 81%
    22:00 +24°C° 0 mm 1 mps 721 mmHg 83%
    23:00 +24°C° 0 mm 1 mps 721 mmHg 85%

    Tomorrow, 26 June, Wednesday

    Time Temperature Precipitation Wind Pressure Humidity
    00:00 +23°C° 0 mm 1 mps 721 mmHg 86%
    01:00 +23°C° 0 mm 1 mps 721 mmHg 86%
    02:00 +23°C° 0 mm 1 mps 721 mmHg 86%
    03:00 +22°C° 0 mm 1 mps 721 mmHg 87%
    04:00 +22°C° 0 mm 0 mps 721 mmHg 84%
    05:00 +23°C° 0 mm 0 mps 721 mmHg 81%
    06:00 +24°C° 0 mm 0 mps 721 mmHg 78%
    07:00 +26°C° 0 mm 0 mps 722 mmHg 72%
    08:00 +28°C° 0 mm 0 mps 722 mmHg 65%
    09:00 +32°C° 0 mm 1 mps 722 mmHg 58%
    10:00 +33°C° 0 mm 1 mps 722 mmHg 53%
    11:00 +35°C° 0 mm 1 mps 722 mmHg 48%
    12:00 +36°C° 0 mm 1 mps 722 mmHg 43%
    13:00 +36°C° 0 mm 1 mps 722 mmHg 42%
    14:00 +36°C° 0 mm 1 mps 722 mmHg 40%
    15:00 +36°C° 0 mm 1 mps 722 mmHg 39%
    16:00 +35°C° 0 mm 1 mps 722 mmHg 48%
    17:00 +33°C° 0 mm 1 mps 721 mmHg 58%
    18:00 +29°C° 0 mm 0 mps 721 mmHg 67%
    19:00 +30°C° 0 mm 1 mps 721 mmHg 69%
    20:00 +28°C° 0 mm 1 mps 721 mmHg 71%
    21:00 +26°C° 0 mm 1 mps 722 mmHg 73%
    22:00 +25°C° 0 mm 1 mps 721 mmHg 73%
    23:00 +24°C° 0 mm 1 mps 721 mmHg 73%

    Day after tomorrow, 27 June, Thursday

    Time Temperature Precipitation Wind Pressure Humidity
    00:00 +24°C° 0 mm 1 mps 721 mmHg 73%
    01:00 +23°C° 0 mm 1 mps 721 mmHg 72%
    02:00 +23°C° 0 mm 1 mps 721 mmHg 72%
    03:00 +23°C° 0 mm 1 mps 720 mmHg 71%
    04:00 +24°C° 0 mm 1 mps 721 mmHg 70%
    05:00 +23°C° 0 mm 0 mps 721 mmHg 69%
    06:00 +24°C° 0 mm 0 mps 721 mmHg 68%
    07:00 +26°C° 0 mm 0 mps 721 mmHg 63%
    08:00 +28°C° 0 mm 0 mps 722 mmHg 58%
    09:00 +33°C° 0 mm 1 mps 722 mmHg 53%
    10:00 +34°C° 0 mm 1 mps 722 mmHg 49%
    11:00 +35°C° 0 mm 1 mps 721 mmHg 44%
    12:00 +36°C° 0 mm 1 mps 721 mmHg 40%
    13:00 +36°C° 0 mm 1 mps 721 mmHg 39%
    14:00 +36°C° 0 mm 1 mps 721 mmHg 37%
    15:00 +37°C° 0 mm 2 mps 721 mmHg 35%
    16:00 +35°C° 0 mm 1 mps 720 mmHg 47%
    17:00 +33°C° 0 mm 1 mps 720 mmHg 59%
    18:00 +31°C° 0 mm 1 mps 720 mmHg 70%
    19:00 +29°C° 0 mm 1 mps 720 mmHg 75%
    20:00 +27°C° 0 mm 1 mps 720 mmHg 81%
    21:00 +25°C° 0 mm 1 mps 720 mmHg 86%
    22:00 +24°C° 0 mm 1 mps 720 mmHg 86%
    23:00 +23°C° 0 mm 1 mps 720 mmHg 87%

    28 June, Friday

    Time Temperature Precipitation Wind Pressure Humidity
    00:00 +23°C° 0 mm 2 mps 720 mmHg 87%
    01:00 +21°C° 0 mm 2 mps 720 mmHg 88%
    02:00 +22°C° 0 mm 1 mps 719 mmHg 89%
    03:00 +21°C° 0 mm 1 mps 719 mmHg 91%
    04:00 +22°C° 0 mm 1 mps 719 mmHg 86%
    05:00 +23°C° 0 mm 1 mps 719 mmHg 82%
    06:00 +24°C° 0 mm 1 mps 719 mmHg 77%
    07:00 +25°C° 0 mm 1 mps 719 mmHg 72%
    08:00 +27°C° 0 mm 2 mps 719 mmHg 67%
    09:00 +29°C° 0 mm 2 mps 719 mmHg 62%
    10:00 +30°C° 0 mm 2 mps 719 mmHg 58%
    11:00 +31°C° 0 mm 3 mps 719 mmHg 54%
    12:00 +33°C° 0 mm 3 mps 719 mmHg 50%
    13:00 +33°C° 0 mm 3 mps 719 mmHg 48%
    14:00 +33°C° 0 mm 3 mps 718 mmHg 46%
    15:00 +33°C° 0 mm 3 mps 718 mmHg 44%
    16:00 +30°C° 0 mm 3 mps 718 mmHg 51%
    17:00 +28°C° 0 mm 3 mps 718 mmHg 58%
    18:00 +26°C° 0 mm 2 mps 718 mmHg 65%
    19:00 +25°C° 0 mm 2 mps 718 mmHg 69%
    20:00 +23°C° 0 mm 2 mps 718 mmHg 74%
    21:00 +20°C° 0 mm 2 mps 718 mmHg 79%
    22:00 +19°C° 0 mm 2 mps 718 mmHg 80%
    23:00 +18°C° 0 mm 2 mps 717 mmHg 81%

    29 June, Saturday

    Time Temperature Precipitation Wind Pressure Humidity
    00:00 +19°C° 0 mm 1 mps 717 mmHg 82%
    01:00 +18°C° 0 mm 1 mps 717 mmHg 83%
    02:00 +18°C° 0 mm 1 mps 716 mmHg 83%
    03:00 +16°C° 0 mm 1 mps 716 mmHg 84%
    04:00 +19°C° 0 mm 1 mps 716 mmHg 80%
    05:00 +20°C° 0 mm 1 mps 717 mmHg 77%
    06:00 +21°C° 0 mm 1 mps 717 mmHg 74%
    07:00 +23°C° 0 mm 1 mps 717 mmHg 68%
    08:00 +25°C° 0 mm 1 mps 717 mmHg 63%
    09:00 +27°C° 0 mm 2 mps 717 mmHg 57%
    10:00 +29°C° 0 mm 2 mps 717 mmHg 54%
    11:00 +30°C° 0 mm 2 mps 717 mmHg 50%
    12:00 +31°C° 0 mm 2 mps 717 mmHg 46%
    13:00 +32°C° 0 mm 1 mps 717 mmHg 44%
    14:00 +32°C° 0 mm 1 mps 717 mmHg 42%
    15:00 +32°C° 0 mm 1 mps 717 mmHg 41%
    16:00 +31°C° 0 mm 1 mps 717 mmHg 50%
    17:00 +30°C° 0 mm 1 mps 717 mmHg 59%
    18:00 +26°C° 0 mm 0 mps 717 mmHg 68%
    19:00 +26°C° 0 mm 1 mps 717 mmHg 72%
    20:00 +24°C° 0 mm 1 mps 717 mmHg 76%
    21:00 +23°C° 0 mm 1 mps 717 mmHg 80%
    22:00 +22°C° 0 mm 1 mps 717 mmHg 79%
    23:00 +22°C° 0 mm 1 mps 717 mmHg 77%

    30 June, Sunday

    Time Temperature Precipitation Wind Pressure Humidity
    00:00 +21°C° 0 mm 1 mps 717 mmHg 76%
    01:00 +21°C° 0 mm 1 mps 717 mmHg 75%
    02:00 +21°C° 0 mm 1 mps 717 mmHg 73%
    03:00 +21°C° 0 mm 1 mps 716 mmHg 71%
    04:00 +22°C° 0 mm 1 mps 717 mmHg 69%
    05:00 +23°C° 0 mm 1 mps 717 mmHg 67%
    06:00 +24°C° 0 mm 1 mps 718 mmHg 65%
    07:00 +26°C° 0 mm 1 mps 718 mmHg 59%
    08:00 +29°C° 0 mm 1 mps 718 mmHg 52%
    09:00 +31°C° 0 mm 1 mps 718 mmHg 46%
    10:00 +32°C° 0 mm 1 mps 718 mmHg 43%
    11:00 +34°C° 0 mm 2 mps 718 mmHg 40%
    12:00 +35°C° 0 mm 2 mps 718 mmHg 38%
    13:00 +35°C° 0 mm 2 mps 718 mmHg 39%
    14:00 +35°C° 0 mm 2 mps 718 mmHg 40%
    15:00 +35°C° 0 mm 2 mps 718 mmHg 41%
    16:00 +33°C° 0 mm 1 mps 718 mmHg 51%
    17:00 +31°C° 0 mm 1 mps 718 mmHg 61%
    18:00 +30°C° 0 mm 1 mps 718 mmHg 71%
    19:00 +28°C° 0.1 mm 1 mps 718 mmHg 76%
    20:00 +26°C° 0.1 mm 1 mps 718 mmHg 81%
    21:00 +24°C° 0.1 mm 1 mps 718 mmHg 85%
    22:00 +24°C° 0.1 mm 1 mps 718 mmHg 85%
    23:00 +23°C° 0.1 mm 1 mps 718 mmHg 84%
    Show more